When you browse on this site, cookies collect data to enhance your experience and personalize the content and advertising you see.
Visit our Privacy Policy to learn more. By continuing to use the site, you agree to this use of cookies and data.
  • In Latvia
  • List of Countries
  • For 7 days
  • Water Temperature
  • Satellite Maps
  • Weather Map
  • Weather Widgets
  • user-avatar
    Login

    Hourly Weather Merkulaevka

    Today, 17 December, Monday

    Time Temperature Precipitation Wind Pressure Humidity
    00:00 +2°C° 0 mm 2 mps 709 mmHg 80%
    01:00 +2°C° 0 mm 2 mps 709 mmHg 78%
    02:00 +2°C° 0 mm 2 mps 709 mmHg 77%
    03:00 +3°C° 0 mm 2 mps 708 mmHg 76%
    04:00 +3°C° 0 mm 2 mps 708 mmHg 76%
    05:00 +3°C° 0 mm 2 mps 708 mmHg 76%
    06:00 +3°C° 0 mm 2 mps 708 mmHg 76%
    07:00 +3°C° 0 mm 2 mps 708 mmHg 75%
    08:00 +3°C° 0 mm 2 mps 708 mmHg 75%
    09:00 +3°C° 0 mm 2 mps 707 mmHg 75%
    10:00 +4°C° 0 mm 2 mps 707 mmHg 73%
    11:00 +6°C° 0 mm 2 mps 707 mmHg 72%
    12:00 +8°C° 0 mm 1 mps 707 mmHg 71%
    13:00 +8°C° 0 mm 1 mps 707 mmHg 73%
    14:00 +7°C° 0 mm 1 mps 707 mmHg 75%
    15:00 +7°C° 0 mm 1 mps 707 mmHg 76%
    16:00 +5°C° 0 mm 2 mps 707 mmHg 78%
    17:00 +4°C° 0 mm 2 mps 706 mmHg 81%
    18:00 +3°C° 0 mm 2 mps 706 mmHg 83%
    19:00 +3°C° 0 mm 2 mps 706 mmHg 82%
    20:00 +3°C° 0 mm 2 mps 706 mmHg 81%
    21:00 +3°C° 0 mm 2 mps 706 mmHg 80%
    22:00 +3°C° 0 mm 2 mps 706 mmHg 79%
    23:00 +4°C° 0 mm 1 mps 706 mmHg 79%

    Tomorrow, 18 December, Tuesday

    Time Temperature Precipitation Wind Pressure Humidity
    00:00 +4°C° 0 mm 1 mps 706 mmHg 78%
    01:00 +4°C° 0 mm 1 mps 707 mmHg 78%
    02:00 +4°C° 0 mm 1 mps 707 mmHg 77%
    03:00 +4°C° 0 mm 1 mps 707 mmHg 77%
    04:00 +4°C° 0 mm 1 mps 707 mmHg 77%
    05:00 +4°C° 0 mm 1 mps 707 mmHg 77%
    06:00 +4°C° 0 mm 1 mps 707 mmHg 77%
    07:00 +4°C° 0.1 mm 1 mps 707 mmHg 76%
    08:00 +5°C° 0.1 mm 1 mps 708 mmHg 76%
    09:00 +5°C° 0.1 mm 1 mps 708 mmHg 75%
    10:00 +6°C° 0.1 mm 1 mps 708 mmHg 72%
    11:00 +7°C° 0.1 mm 1 mps 708 mmHg 69%
    12:00 +9°C° 0.1 mm 1 mps 708 mmHg 66%
    13:00 +9°C° 0 mm 1 mps 708 mmHg 69%
    14:00 +8°C° 0 mm 1 mps 708 mmHg 71%
    15:00 +8°C° 0 mm 1 mps 708 mmHg 74%
    16:00 +7°C° 0 mm 1 mps 708 mmHg 77%
    17:00 +6°C° 0 mm 1 mps 708 mmHg 81%
    18:00 +4°C° 0 mm 1 mps 708 mmHg 84%
    19:00 +4°C° 0 mm 1 mps 708 mmHg 83%
    20:00 +4°C° 0 mm 1 mps 708 mmHg 82%
    21:00 +4°C° 0 mm 1 mps 708 mmHg 80%
    22:00 +4°C° 0.1 mm 1 mps 709 mmHg 79%
    23:00 +5°C° 0.1 mm 1 mps 709 mmHg 79%

    Day after tomorrow, 19 December, Wednesday

    Time Temperature Precipitation Wind Pressure Humidity
    00:00 +5°C° 0.1 mm 1 mps 709 mmHg 78%
    01:00 +4°C° 0 mm 1 mps 709 mmHg 77%
    02:00 +4°C° 0 mm 1 mps 708 mmHg 77%
    03:00 +4°C° 0 mm 1 mps 708 mmHg 77%
    04:00 +4°C° 0 mm 1 mps 708 mmHg 77%
    05:00 +4°C° 0 mm 1 mps 708 mmHg 78%
    06:00 +4°C° 0 mm 1 mps 707 mmHg 78%
    07:00 +4°C° 0 mm 1 mps 708 mmHg 77%
    08:00 +5°C° 0 mm 1 mps 708 mmHg 76%
    09:00 +5°C° 0 mm 1 mps 708 mmHg 76%
    10:00 +6°C° 0 mm 1 mps 708 mmHg 73%
    11:00 +8°C° 0 mm 1 mps 707 mmHg 71%
    12:00 +9°C° 0 mm 1 mps 707 mmHg 69%
    13:00 +9°C° 0 mm 1 mps 707 mmHg 71%
    14:00 +9°C° 0 mm 1 mps 707 mmHg 73%
    15:00 +9°C° 0 mm 1 mps 707 mmHg 75%
    16:00 +7°C° 0 mm 2 mps 706 mmHg 76%
    17:00 +6°C° 0 mm 2 mps 706 mmHg 77%
    18:00 +5°C° 0 mm 2 mps 706 mmHg 78%
    19:00 +5°C° 0.1 mm 2 mps 706 mmHg 78%
    20:00 +5°C° 0.1 mm 2 mps 706 mmHg 77%
    21:00 +5°C° 0.1 mm 2 mps 706 mmHg 77%
    22:00 +5°C° 0.3 mm 2 mps 706 mmHg 78%
    23:00 +6°C° 0.3 mm 1 mps 706 mmHg 79%

    20 December, Thursday

    Time Temperature Precipitation Wind Pressure Humidity
    00:00 +6°C° 0.3 mm 1 mps 706 mmHg 80%
    01:00 +6°C° 0.4 mm 1 mps 706 mmHg 81%
    02:00 +6°C° 0.4 mm 1 mps 706 mmHg 83%
    03:00 +6°C° 0.4 mm 1 mps 706 mmHg 84%
    04:00 +6°C° 0.7 mm 1 mps 706 mmHg 85%
    05:00 +6°C° 0.7 mm 1 mps 706 mmHg 86%
    06:00 +6°C° 0.7 mm 1 mps 706 mmHg 88%
    07:00 +6°C° 0.6 mm 1 mps 707 mmHg 88%
    08:00 +6°C° 0.6 mm 1 mps 707 mmHg 88%
    09:00 +6°C° 0.6 mm 1 mps 707 mmHg 89%
    10:00 +7°C° 0.5 mm 1 mps 708 mmHg 87%
    11:00 +7°C° 0.5 mm 1 mps 708 mmHg 85%
    12:00 +8°C° 0.5 mm 1 mps 708 mmHg 83%
    13:00 +8°C° 0.5 mm 1 mps 708 mmHg 84%
    14:00 +8°C° 0.5 mm 1 mps 708 mmHg 85%
    15:00 +8°C° 0.5 mm 1 mps 708 mmHg 86%
    16:00 +7°C° 0.3 mm 1 mps 708 mmHg 88%
    17:00 +7°C° 0.3 mm 1 mps 708 mmHg 90%
    18:00 +5°C° 0.3 mm 0 mps 708 mmHg 92%
    19:00 +5°C° 0.3 mm 0 mps 709 mmHg 92%
    20:00 +5°C° 0.3 mm 0 mps 709 mmHg 92%
    21:00 +5°C° 0.3 mm 0 mps 709 mmHg 92%
    22:00 +5°C° 0.3 mm 0 mps 709 mmHg 93%
    23:00 +5°C° 0.3 mm 0 mps 709 mmHg 93%

    21 December, Friday

    Time Temperature Precipitation Wind Pressure Humidity
    00:00 +5°C° 0.3 mm 0 mps 709 mmHg 94%
    01:00 +5°C° 0.2 mm 0 mps 710 mmHg 94%
    02:00 +5°C° 0.2 mm 0 mps 710 mmHg 94%
    03:00 +5°C° 0.2 mm 0 mps 710 mmHg 93%
    04:00 +5°C° 0.2 mm 0 mps 710 mmHg 94%
    05:00 +5°C° 0.2 mm 0 mps 710 mmHg 94%
    06:00 +5°C° 0.2 mm 0 mps 710 mmHg 94%
    07:00 +5°C° 0.1 mm 0 mps 710 mmHg 94%
    08:00 +6°C° 0.1 mm 1 mps 711 mmHg 94%
    09:00 +6°C° 0.1 mm 1 mps 711 mmHg 93%
    10:00 +7°C° 0.1 mm 1 mps 711 mmHg 92%
    11:00 +7°C° 0.1 mm 1 mps 711 mmHg 91%
    12:00 +8°C° 0.1 mm 1 mps 711 mmHg 89%
    13:00 +7°C° 0.1 mm 1 mps 711 mmHg 90%
    14:00 +7°C° 0.1 mm 1 mps 711 mmHg 91%
    15:00 +7°C° 0.1 mm 1 mps 711 mmHg 92%
    16:00 +7°C° 0 mm 1 mps 711 mmHg 93%
    17:00 +6°C° 0 mm 1 mps 711 mmHg 95%
    18:00 +6°C° 0 mm 1 mps 711 mmHg 96%
    19:00 +5°C° 0 mm 1 mps 711 mmHg 96%
    20:00 +5°C° 0 mm 1 mps 711 mmHg 96%
    21:00 +5°C° 0 mm 1 mps 711 mmHg 95%
    22:00 +5°C° 0 mm 1 mps 711 mmHg 95%
    23:00 +4°C° 0 mm 1 mps 710 mmHg 94%

    22 December, Saturday

    Time Temperature Precipitation Wind Pressure Humidity
    00:00 +4°C° 0 mm 1 mps 710 mmHg 93%
    01:00 +4°C° 0 mm 1 mps 710 mmHg 92%
    02:00 +3°C° 0 mm 1 mps 710 mmHg 91%
    03:00 +3°C° 0 mm 1 mps 710 mmHg 91%
    04:00 +3°C° 0.1 mm 1 mps 709 mmHg 90%
    05:00 +4°C° 0.1 mm 1 mps 709 mmHg 90%
    06:00 +4°C° 0.1 mm 1 mps 709 mmHg 90%
    07:00 +4°C° 0.3 mm 1 mps 709 mmHg 90%
    08:00 +4°C° 0.3 mm 1 mps 709 mmHg 89%
    09:00 +3°C° 0.3 mm 0 mps 709 mmHg 89%
    10:00 +4°C° 0.3 mm 0 mps 709 mmHg 88%
    11:00 +4°C° 0.3 mm 0 mps 709 mmHg 87%
    12:00 +5°C° 0.3 mm 0 mps 709 mmHg 86%
    13:00 +6°C° 0.4 mm 1 mps 709 mmHg 87%
    14:00 +6°C° 0.4 mm 1 mps 709 mmHg 87%
    15:00 +6°C° 0.4 mm 1 mps 708 mmHg 88%
    16:00 +4°C° 0.3 mm 0 mps 709 mmHg 90%
    17:00 +4°C° 0.3 mm 0 mps 709 mmHg 92%
    18:00 +3°C° 0.3 mm 0 mps 709 mmHg 94%
    19:00 +3°C° 0.2 mm 0 mps 709 mmHg 94%
    20:00 +3°C° 0.2 mm 0 mps 709 mmHg 94%
    21:00 +3°C° 0.2 mm 0 mps 709 mmHg 94%
    22:00 +4°C° 0.3 mm 1 mps 709 mmHg 93%
    23:00 +4°C° 0.3 mm 1 mps 709 mmHg 93%
    Show more